Boscobel, WI

7:28 AM CDT on July 30, 2016 (GMT -0500)
Boscobel

Weather History for KOVS - October, 2012

Change the Weather History Date:

Tuesday, October 2, 2012

  Actual Average (KPDC) Record (KPDC)
Temperature  
Mean Temperature 56 °F -  
Max Temperature 75 °F 72 °F 91 °F (1953)
Min Temperature 39 °F 45 °F 21 °F (2003)
Degree Days  
Heating Degree Days 9    
Growing Degree Days 6 (Base 50)    
Moisture  
Dew Point 45 °F    
Average Humidity 86    
Maximum Humidity 100    
Minimum Humidity 41    
Precipitation  
Precipitation 0.00 in - - ()
Sea Level Pressure  
Sea Level Pressure 29.91 in    
Wind  
Wind Speed 1 mph (ENE)    
Max Wind Speed 8 mph    
Max Gust Speed -    
Visibility 6 miles    
Events      
Averages and records for this station are not official NWS values.
T = Trace of Precipitation, MM = Missing Value Source: NWS Daily Summary

Daily Weather History Graph

Daily Weather History Graph

Search for Another Location

Airport or City:

Trip Planner

Search our weather history database for the weather conditions in past years. The results will help you decide how hot, cold, wet, or windy it might be!

Date:

Astronomy

Oct. 02, 2012 Rise Set
Actual Time 7:01 AM CDT 6:41 PM CDT
Civil Twilight 6:33 AM CDT 7:09 PM CDT
Nautical Twilight 6:00 AM CDT 7:42 PM CDT
Astronomical Twilight 5:27 AM CDT 8:15 PM CDT
Moon 7:48 PM CDT (10/2) 9:34 AM CDT (10/2)
Length of Visible Light 12h 36m
Length of Day
11h 39m
Waning Gibbous, 94% of the Moon is Illuminated
Oct 2
Waning Gibbous
Oct 8
Last Quarter
Oct 15
New
Oct 21
First Quarter
Oct 29
Full

Hourly Weather History & Observations

Time (CDT) Temp. Windchill Dew Point Humidity Pressure Visibility Wind Dir Wind Speed Gust Speed Precip Events Conditions
12:53 AM 46.0 °F - 44.1 °F 93% 29.87 in 9.0 mi Calm Calm - N/A   Partly Cloudy
1:53 AM 45.0 °F - 44.1 °F 97% 29.88 in 4.0 mi Calm Calm - N/A   Clear
2:50 AM 42.8 °F - 42.8 °F 100% 29.87 in 2.5 mi Calm Calm - N/A   Clear
2:53 AM 41.0 °F - 41.0 °F 100% 29.88 in 6.0 mi Calm Calm - N/A   Clear
3:53 AM 42.1 °F - 41.0 °F 96% 29.88 in 8.0 mi Calm Calm - N/A   Clear
4:53 AM 41.0 °F - 41.0 °F 100% 29.90 in 5.0 mi Calm Calm - N/A   Clear
6:08 AM 39.2 °F - 39.2 °F 100% 29.91 in 1.8 mi Calm Calm - N/A   Mist
6:15 AM 39.2 °F - 39.2 °F 100% 29.91 in 3.0 mi Calm Calm - N/A   Mist
6:27 AM 39.2 °F - 39.2 °F 100% 29.91 in 1.8 mi Calm Calm - N/A   Clear
6:33 AM 39.2 °F - 39.2 °F 100% 29.91 in 2.0 mi Calm Calm - N/A   Partly Cloudy
6:40 AM 39.2 °F - 39.2 °F 100% 29.91 in 1.2 mi Calm Calm - N/A   Scattered Clouds
6:49 AM 39.2 °F - 39.2 °F 100% 29.91 in 3.0 mi Calm Calm - N/A   Mostly Cloudy
6:53 AM 39.0 °F - 39.0 °F 100% 29.93 in 6.0 mi Calm Calm - N/A   Mostly Cloudy
7:04 AM 39.2 °F - 39.2 °F 100% 29.92 in 1.5 mi Calm Calm - N/A   Overcast
7:07 AM 39.2 °F - 39.2 °F 100% 29.92 in 0.8 mi Calm Calm - N/A   Mist
7:27 AM 39.2 °F 37.0 °F 39.2 °F 100% 29.93 in 1.2 mi SE 3.5 mph - N/A   Mostly Cloudy
7:36 AM 39.2 °F - 39.2 °F 100% 29.93 in 2.5 mi Calm Calm - N/A   Scattered Clouds
8:53 AM 51.1 °F - 48.9 °F 92% 29.96 in 10.0 mi Calm Calm - N/A   Clear
9:53 AM 59.0 °F - 51.1 °F 75% 29.96 in 10.0 mi NE 8.1 mph - N/A   Clear
10:53 AM 63.0 °F - 51.1 °F 65% 29.94 in 10.0 mi ENE 8.1 mph - N/A   Clear
11:53 AM 66.9 °F - 51.1 °F 57% 29.93 in 10.0 mi Variable 5.8 mph - N/A   Clear
12:53 PM 69.1 °F - 51.1 °F 53% 29.92 in 10.0 mi Variable 3.5 mph - N/A   Clear
1:53 PM 71.1 °F - 48.9 °F 45% 29.89 in 10.0 mi Variable 3.5 mph - N/A   Clear
2:53 PM 73.0 °F - 50.0 °F 44% 29.88 in 10.0 mi Calm Calm - N/A   Clear
3:53 PM 73.9 °F - 48.9 °F 41% 29.87 in 10.0 mi Calm Calm - N/A   Clear
4:53 PM 73.9 °F - 48.9 °F 41% 29.87 in 10.0 mi Calm Calm - N/A   Clear
5:53 PM 72.0 °F - 50.0 °F 46% 29.86 in 10.0 mi Calm Calm - N/A   Clear
6:53 PM 63.0 °F - 52.0 °F 67% 29.89 in 10.0 mi Calm Calm - N/A   Clear
7:53 PM 55.0 °F - 50.0 °F 83% 29.91 in 10.0 mi Calm Calm - N/A   Clear
8:53 PM 51.1 °F - 48.9 °F 92% 29.92 in 10.0 mi Calm Calm - N/A   Clear
9:53 PM 48.9 °F - 48.0 °F 97% 29.93 in 9.0 mi Calm Calm - N/A   Clear
10:53 PM 48.0 °F - 46.9 °F 96% 29.94 in 8.0 mi Calm Calm - N/A   Clear
11:20 PM 46.4 °F - 46.4 °F 100% 29.93 in 1.2 mi Calm Calm - N/A   Clear
11:22 PM 46.4 °F - 46.4 °F 100% 29.93 in 0.8 mi Calm Calm - N/A   Clear
11:40 PM 46.4 °F - 46.4 °F 100% 29.93 in 3.0 mi Calm Calm - N/A   Clear
11:50 PM 44.6 °F - 44.6 °F 100% 29.93 in 2.0 mi Calm Calm - N/A   Clear
11:53 PM 44.1 °F - 43.0 °F 96% 29.94 in 2.0 mi Calm Calm - N/A   Clear
11:55 PM 44.6 °F - 42.8 °F 93% 29.93 in 5.0 mi Calm Calm - N/A   Partly Cloudy